[[{"header":{"parameterUnit":"m.s-1","parameterCategory":1,"la1":30.2991,"la2":30.254,"lo1":-89.0895,"lo2":-89.0444,"dy":0.0017,"dx":0.0017,"nx":28,"ny":28,"refTime":"2023-09-15T09:00:00:Z","depth":0,"parameterNumber":2,"parameterNumberName":"U-component_of_WINDS"},"data":[0,0,0,0,0,0,0,0,0,0,0,0,0,0,0,0,0,0,0,0,0,0,0,0,0,0,0,0,0,0,0,0,0,0,0,0,0,0,0,0,0,0,0,0,0,0,0,0,0,0,0,0,0,0,0,0,0,0,-1.0567,-1.0567,0,-1.0589,-1.059,-1.059,-1.054,-1.0539,-1.0537,-1.0535,-1.0561,-1.0563,-1.0566,0,0,0,0,0,0,0,0,0,0,0,0,0,-1.0484,-1.0486,-1.0567,-1.0567,-1.0568,-1.0589,-1.059,-1.059,-1.054,-1.0539,-1.0537,-1.0535,-1.0561,-1.0563,-1.0566,0,0,0,0,0,0,0,0,0,0,0,0,0,-1.0515,-1.0486,-1.0567,-1.0545,-1.0544,-1.0589,-1.059,-1.059,-1.0541,-1.0538,-1.0536,-1.0534,-1.056,-1.0563,-1.0566,-1.0635,0,0,-1.0576,-1.0578,0,0,0,0,0,0,0,0,-1.0513,-1.0518,-1.0548,-1.0547,-1.0545,-1.0559,-1.057,-1.0605,-1.0542,-1.0542,-1.0535,-1.0533,-1.0563,-1.0566,-1.0575,-1.0636,-1.0637,-1.0577,-1.0579,-1.058,-1.0581,0,0,0,0,0,0,0,-1.0511,-1.0517,-1.0576,-1.0549,-1.0547,-1.0535,-1.0537,-1.0576,-1.0566,-1.0542,-1.0538,-1.0541,-1.0562,-1.0572,-1.0576,-1.0637,-1.0576,-1.0579,-1.0581,-1.0583,-1.0755,-1.0757,0,0,0,0,0,0,-1.0511,-1.0515,-1.0575,-1.0577,-1.0523,-1.0539,-1.0541,-1.0557,-1.0565,-1.0564,-1.0543,-1.0539,-1.0568,-1.0572,-1.0576,-1.0657,-1.058,-1.0583,-1.0585,-1.0752,-1.0755,-1.0758,0,0,0,0,0,0,-1.051,-1.0517,-1.0574,-1.0545,-1.0551,-1.0543,-1.0562,-1.0559,-1.057,-1.0566,-1.0565,-1.0556,-1.0566,-1.0572,-1.062,-1.0657,-1.0584,-1.0587,-1.0749,-1.0753,-1.0757,-1.0819,0,0,0,0,0,0,-1.0507,-1.0517,-1.0542,-1.0546,-1.0553,-1.0618,-1.0564,-1.0561,-1.0575,-1.057,-1.0578,-1.0577,-1.0565,-1.0616,-1.0624,-1.066,-1.059,-1.0746,-1.0751,-1.0756,-1.0814,-1.0824,-1.0834,0,0,0,0,0,-1.0505,-1.0559,-1.0544,-1.0551,-1.0585,-1.062,-1.0624,-1.0608,-1.0578,-1.0604,-1.0602,-1.0577,-1.0652,-1.0621,-1.0629,-1.0668,-1.0744,-1.075,-1.0755,-1.0809,-1.0822,-1.0833,0,0,0,0,0,0,-1.0562,-1.056,-1.0542,-1.06,-1.061,-1.0611,-1.0643,-1.0622,-1.0642,-1.0636,-1.0616,-1.0619,-1.0671,-1.0674,-1.064,-1.0734,-1.0693,-1.0701,-1.0731,-1.0743,-1.0753,-1.0752,-1.0593,0,0,0,0,0,-1.0581,-1.0609,-1.0606,-1.0657,-1.0663,-1.0652,-1.0667,-1.0653,-1.0664,-1.0668,-1.067,-1.0682,-1.0708,-1.0725,-1.0749,-1.0813,-1.0815,-1.0844,-1.0854,-1.0862,-1.087,-1.0904,-1.0917,-1.0778,-1.0777,-1.0777,0,0,-1.0621,-1.0623,-1.0642,-1.0668,-1.0675,-1.0705,-1.0656,-1.069,-1.0713,-1.0674,-1.072,-1.0721,-1.0733,-1.0789,-1.0814,-1.0794,-1.0908,-1.087,-1.0876,-1.0879,-1.0911,-1.0924,-1.0936,-1.0781,-1.0781,-1.078,0,0,-1.071,-1.0714,-1.0757,-1.0764,-1.0774,-1.0766,-1.0777,-1.0781,-1.078,-1.0825,-1.0797,-1.0823,-1.0868,-1.0878,-1.0889,-1.098,-1.0958,-1.0988,-1.1042,-1.1075,-1.1086,-1.1096,-1.1129,-1.1141,-1.0996,-1.0996,-1.0996,0,-1.0759,-1.0802,-1.0782,-1.0818,-1.083,-1.0795,-1.0838,-1.0847,-1.0865,-1.0874,-1.085,-1.0906,-1.0911,-1.097,-1.0992,-1.1002,-1.1013,-1.0988,-1.1086,-1.1095,-1.1104,-1.1135,-1.1148,-1.0999,-1.0999,-1.0999,-1.0998,0,-1.0862,-1.0892,-1.0926,-1.0943,-1.0959,-1.0999,-1.0985,-1.1004,-1.0989,-1.0984,-1.103,-1.1035,-1.106,-1.1072,-1.1058,-1.1129,-1.1115,-1.1089,-1.1047,-1.1121,-1.115,-1.1162,-1.1005,-1.1003,-1.1002,-1.1001,0,0,-1.0988,-1.0992,-1.1005,-1.1012,-1.102,-1.1044,-1.1082,-1.1104,-1.1121,-1.1134,-1.1166,-1.1205,-1.118,-1.1192,-1.1179,-1.1208,-1.128,-1.1178,-1.1178,-1.1197,-1.1358,-1.1378,-1.1393,-1.1265,-1.1267,-1.1269,-1.1357,0,-1.1076,-1.1141,-1.1123,-1.1188,-1.1216,-1.1182,-1.1215,-1.1224,-1.1221,-1.1244,-1.1241,-1.1268,-1.1234,-1.1241,-1.1268,-1.1266,-1.1312,-1.1259,-1.1295,-1.1297,-1.1294,-1.1408,-1.1429,-1.1513,-1.1368,-1.137,-1.1372,0,-1.1188,-1.1204,-1.1271,-1.1274,-1.1285,-1.1315,-1.1334,-1.1357,-1.1366,-1.1361,-1.1375,-1.1355,-1.1393,-1.135,-1.1402,-1.1366,-1.138,-1.1381,-1.1384,-1.1387,-1.1339,-1.1415,-1.1539,-1.1551,-1.1389,-1.1388,-1.1387,0,-1.1274,-1.1313,-1.1358,-1.1365,-1.1369,-1.1391,-1.1394,-1.14,-1.1415,-1.1432,-1.1441,-1.1462,-1.1474,-1.1491,-1.1478,-1.1448,-1.1533,-1.1489,-1.1531,-1.1531,-1.1551,-1.155,-1.168,-1.1559,-1.1559,-1.1558,-1.1558,0,-1.1374,-1.1417,-1.1396,-1.1424,-1.1471,-1.145,-1.1497,-1.1496,-1.1503,-1.153,-1.1502,-1.1529,-1.151,-1.1535,-1.1525,-1.157,-1.1576,-1.1573,-1.157,-1.1576,-1.1577,-1.1585,-1.158,-1.1562,-1.1561,-1.156,-1.156,0,-1.1479,-1.1467,-1.1513,-1.1513,-1.1514,-1.1548,-1.1548,-1.1574,-1.1568,-1.1603,-1.161,-1.1601,-1.1629,-1.1617,-1.1647,-1.1641,-1.1698,-1.1687,-1.1695,-1.1692,-1.1735,-1.1732,-1.1876,-1.1893,-1.1761,-1.1762,-1.1763,0,-1.1544,-1.1576,-1.1578,-1.1594,-1.1599,-1.1625,-1.1639,-1.162,-1.1636,-1.1649,-1.1673,-1.1699,-1.1718,-1.1764,-1.1761,-1.1783,-1.1773,-1.1822,-1.1777,-1.1781,-1.1774,-1.1773,-1.1776,-1.1831,-1.1833,-1.1834,-1.1835,0,-1.1661,-1.1653,-1.1674,-1.1693,-1.1711,-1.1725,-1.1737,-1.1752,-1.1733,-1.1753,-1.178,-1.1795,-1.1825,-1.1851,-1.1871,-1.1874,-1.1852,-1.1849,-1.186,-1.1867,-1.187,-1.1869,-1.172,-1.1846,-1.1845,-1.1845,-1.1844,-1.1843,-1.1748,-1.1775,-1.1781,-1.1805,-1.1812,-1.1823,-1.1847,-1.1844,-1.1866,-1.1888,-1.1876,-1.1908,-1.1916,-1.194,-1.1947,-1.1972,-1.1953,-1.1969,-1.1973,-1.1978,-1.1983,-1.1866,-1.1976,-1.1975,-1.1975,-1.1975,-1.1975,0,-1.1865,-1.1866,-1.1889,-1.1906,-1.1925,-1.1901,-1.1912,-1.193,-1.1959,-1.1968,-1.1987,-1.2019,-1.2043,-1.2041,-1.2063,-1.2084,-1.2075,-1.2091,-1.2089,-1.2091,-1.1999,-1.1987,-1.2098,-1.2098,-1.2098,-1.2098,-1.2098,-1.2098,-1.1927,-1.1971,-1.1963,-1.201,-1.2011,-1.2042,-1.2051,-1.2062,-1.2068,-1.2105,-1.2124,-1.2122,-1.2127,-1.2149,-1.2171,-1.2169,-1.2179,-1.22,-1.2195,-1.2109,-1.2097,-1.2085,-1.2074,-1.2202,-1.2202,-1.2284,-1.2285,-1.2286]},{"header":{"parameterUnit":"m.s-1","parameterCategory":1,"la1":30.2991,"la2":30.254,"lo1":-89.0895,"lo2":-89.0444,"dy":0.0017,"dx":0.0017,"nx":28,"ny":28,"refTime":"2023-09-15T09:00:00:Z","depth":0,"parameterNumber":3,"parameterNumberName":"V-component_of_WINDS"},"data":[0,0,0,0,0,0,0,0,0,0,0,0,0,0,0,0,0,0,0,0,0,0,0,0,0,0,0,0,0,0,0,0,0,0,0,0,0,0,0,0,0,0,0,0,0,0,0,0,0,0,0,0,0,0,0,0,0,0,-1.8565,-1.8565,0,-1.8578,-1.8578,-1.8579,-1.8561,-1.8561,-1.856,-1.856,-1.8572,-1.8572,-1.8573,0,0,0,0,0,0,0,0,0,0,0,0,0,-1.8524,-1.8525,-1.8565,-1.8565,-1.8566,-1.8578,-1.8578,-1.8579,-1.8562,-1.8561,-1.856,-1.8559,-1.8571,-1.8572,-1.8573,0,0,0,0,0,0,0,0,0,0,0,0,0,-1.854,-1.8526,-1.8565,-1.8559,-1.8558,-1.8578,-1.8578,-1.8579,-1.8562,-1.8561,-1.856,-1.8559,-1.8571,-1.8572,-1.8574,-1.86,0,0,-1.8578,-1.8578,0,0,0,0,0,0,0,0,-1.8539,-1.8542,-1.8559,-1.8559,-1.8559,-1.8567,-1.8568,-1.8586,-1.8562,-1.856,-1.856,-1.8559,-1.8571,-1.8572,-1.8577,-1.8601,-1.8601,-1.8578,-1.8579,-1.8579,-1.858,0,0,0,0,0,0,0,-1.8538,-1.8541,-1.857,-1.856,-1.8559,-1.8555,-1.8556,-1.8572,-1.8571,-1.856,-1.8559,-1.8561,-1.857,-1.8575,-1.8577,-1.8601,-1.8578,-1.8579,-1.858,-1.858,-1.8648,-1.8649,0,0,0,0,0,0,-1.8538,-1.854,-1.857,-1.8571,-1.8547,-1.8556,-1.8558,-1.8565,-1.857,-1.857,-1.8562,-1.856,-1.8573,-1.8575,-1.8577,-1.8608,-1.8579,-1.858,-1.8581,-1.8647,-1.8648,-1.8649,0,0,0,0,0,0,-1.8537,-1.8541,-1.8569,-1.8555,-1.8559,-1.8558,-1.8567,-1.8566,-1.8571,-1.8571,-1.8571,-1.8567,-1.8573,-1.8575,-1.8595,-1.8609,-1.8581,-1.8582,-1.8646,-1.8647,-1.8649,-1.8672,0,0,0,0,0,0,-1.8536,-1.8541,-1.8551,-1.8556,-1.8559,-1.8587,-1.8568,-1.8567,-1.8574,-1.8572,-1.8576,-1.8576,-1.8572,-1.8593,-1.8596,-1.861,-1.8583,-1.8645,-1.8647,-1.8648,-1.8669,-1.8674,-1.8677,0,0,0,0,0,-1.8535,-1.8557,-1.8552,-1.8555,-1.8572,-1.8588,-1.859,-1.8586,-1.8575,-1.8585,-1.8585,-1.8576,-1.8607,-1.8595,-1.8598,-1.8613,-1.8644,-1.8646,-1.8648,-1.8668,-1.8673,-1.8677,0,0,0,0,0,0,-1.8553,-1.8557,-1.8552,-1.8576,-1.8582,-1.8585,-1.8598,-1.8591,-1.86,-1.8598,-1.8591,-1.8593,-1.8613,-1.8615,-1.8602,-1.8639,-1.8623,-1.8626,-1.8637,-1.8642,-1.8646,-1.8645,-1.8584,0,0,0,0,0,-1.856,-1.8573,-1.8576,-1.8597,-1.86,-1.8599,-1.8605,-1.8601,-1.8607,-1.8609,-1.8611,-1.8617,-1.8627,-1.8635,-1.8645,-1.867,-1.867,-1.8681,-1.8685,-1.8688,-1.8691,-1.8704,-1.8709,-1.8657,-1.8657,-1.8657,0,0,-1.8575,-1.8578,-1.8587,-1.8601,-1.8605,-1.8618,-1.8601,-1.8615,-1.8625,-1.8611,-1.863,-1.8632,-1.8637,-1.866,-1.867,-1.8662,-1.8706,-1.8691,-1.8694,-1.8695,-1.8707,-1.8712,-1.8716,-1.8658,-1.8658,-1.8658,0,0,-1.8608,-1.8612,-1.863,-1.8635,-1.8641,-1.864,-1.8645,-1.8649,-1.865,-1.8668,-1.8659,-1.867,-1.8689,-1.8693,-1.8698,-1.8733,-1.8725,-1.8736,-1.8756,-1.8769,-1.8773,-1.8777,-1.8789,-1.8794,-1.8739,-1.8739,-1.8739,0,-1.8624,-1.8644,-1.864,-1.8655,-1.8661,-1.865,-1.8668,-1.8673,-1.8683,-1.8687,-1.8678,-1.8702,-1.8705,-1.8728,-1.8737,-1.8741,-1.8745,-1.8736,-1.8773,-1.8777,-1.878,-1.8791,-1.8796,-1.874,-1.874,-1.874,-1.874,0,-1.8665,-1.8678,-1.8692,-1.8702,-1.871,-1.8726,-1.8724,-1.8732,-1.8728,-1.8728,-1.8747,-1.875,-1.8761,-1.8766,-1.8762,-1.8789,-1.8784,-1.8774,-1.8758,-1.8786,-1.8797,-1.8802,-1.8742,-1.8742,-1.8741,-1.8741,0,0,-1.8709,-1.8717,-1.8722,-1.8726,-1.8733,-1.8744,-1.876,-1.877,-1.8778,-1.8785,-1.8798,-1.8814,-1.8805,-1.8811,-1.8807,-1.8818,-1.8845,-1.8807,-1.8807,-1.8814,-1.8875,-1.8882,-1.8888,-1.884,-1.8841,-1.8842,-1.8875,0,-1.8742,-1.877,-1.8767,-1.8793,-1.8806,-1.8796,-1.881,-1.8815,-1.8816,-1.8826,-1.8826,-1.8838,-1.8825,-1.8829,-1.884,-1.884,-1.8858,-1.8837,-1.8852,-1.8852,-1.885,-1.8893,-1.8901,-1.8932,-1.8879,-1.888,-1.888,0,-1.8784,-1.8793,-1.8821,-1.8826,-1.8831,-1.8844,-1.8854,-1.8864,-1.887,-1.8869,-1.8876,-1.8869,-1.8885,-1.8869,-1.889,-1.8877,-1.8883,-1.8884,-1.8885,-1.8885,-1.8868,-1.8895,-1.8941,-1.8946,-1.8887,-1.8886,-1.8886,0,-1.8813,-1.8832,-1.8852,-1.8856,-1.8862,-1.8872,-1.8875,-1.888,-1.8886,-1.8895,-1.8899,-1.8909,-1.8914,-1.8922,-1.8919,-1.8907,-1.894,-1.8924,-1.894,-1.894,-1.8947,-1.8946,-1.8995,-1.8951,-1.8951,-1.8951,-1.8951,0,-1.885,-1.8868,-1.8865,-1.8877,-1.8896,-1.8892,-1.8911,-1.8913,-1.8918,-1.8929,-1.8921,-1.8932,-1.8927,-1.8938,-1.8936,-1.8953,-1.8956,-1.8956,-1.8955,-1.8956,-1.8956,-1.896,-1.8957,-1.8952,-1.8952,-1.8952,-1.8952,0,-1.8886,-1.8885,-1.8906,-1.891,-1.8912,-1.8926,-1.8929,-1.894,-1.894,-1.8955,-1.8958,-1.8958,-1.897,-1.8968,-1.8981,-1.8979,-1.9002,-1.8998,-1.9,-1.8999,-1.9014,-1.9013,-1.9066,-1.9073,-1.9025,-1.9026,-1.9026,0,-1.8909,-1.8923,-1.8929,-1.8936,-1.894,-1.8953,-1.896,-1.8956,-1.8963,-1.8971,-1.8981,-1.8993,-1.9002,-1.9022,-1.9022,-1.9032,-1.9029,-1.9047,-1.903,-1.9031,-1.9029,-1.9028,-1.9029,-1.905,-1.905,-1.9051,-1.9051,0,-1.8951,-1.895,-1.8961,-1.8971,-1.898,-1.8988,-1.8995,-1.9002,-1.8999,-1.9008,-1.902,-1.9027,-1.9041,-1.9053,-1.9062,-1.9065,-1.9057,-1.9057,-1.9061,-1.9062,-1.9063,-1.9062,-1.9008,-1.9055,-1.9055,-1.9055,-1.9054,-1.9054,-1.8981,-1.8992,-1.8999,-1.9011,-1.9016,-1.9023,-1.9034,-1.9035,-1.9046,-1.9057,-1.9054,-1.9068,-1.9074,-1.9086,-1.909,-1.91,-1.9094,-1.91,-1.9101,-1.9103,-1.9104,-1.9061,-1.9102,-1.9102,-1.9102,-1.9102,-1.9102,0,-1.9022,-1.9025,-1.9037,-1.9047,-1.9057,-1.905,-1.9058,-1.9066,-1.9079,-1.9085,-1.9094,-1.9109,-1.912,-1.9121,-1.9132,-1.914,-1.9137,-1.9143,-1.9142,-1.9143,-1.911,-1.9105,-1.9145,-1.9145,-1.9145,-1.9145,-1.9145,-1.9145,-1.9044,-1.9063,-1.9063,-1.9084,-1.9088,-1.9102,-1.9107,-1.9113,-1.9118,-1.9135,-1.9144,-1.9146,-1.915,-1.916,-1.917,-1.917,-1.9174,-1.9182,-1.918,-1.915,-1.9145,-1.9141,-1.9137,-1.9183,-1.9183,-1.9212,-1.9213,-1.9213]}]]